Time,TemperatureF,DewpointF,PressureIn,WindDirection,WindDirectionDegrees,WindSpeedMPH,WindSpeedGustMPH,Humidity,HourlyPrecipIn,Conditions,Clouds,dailyrainin,SoftwareType,DateUTC
2013-03-14 00:00:00,56.7,36.7,30.33,ESE,123,1.0,6.0,47,0.00,,,0.00,VWS V14.01,2013-03-14 05:00:00,
2013-03-14 00:05:00,56.3,36.3,30.33,ESE,117,0.0,3.0,47,0.00,,,0.00,VWS V14.01,2013-03-14 05:05:00,
2013-03-14 00:10:00,56.1,36.7,30.33,ESE,122,1.0,3.0,48,0.00,,,0.00,VWS V14.01,2013-03-14 05:10:00,
2013-03-14 00:15:00,55.9,36.5,30.33,SE,135,2.0,3.0,48,0.00,,,0.00,VWS V14.01,2013-03-14 05:15:00,
2013-03-14 00:20:00,55.6,36.8,30.33,SE,131,1.0,3.0,49,0.00,,,0.00,VWS V14.01,2013-03-14 05:20:00,
2013-03-14 00:25:00,55.3,37.0,30.33,SE,131,1.0,3.0,50,0.00,,,0.00,VWS V14.01,2013-03-14 05:25:00,
2013-03-14 00:30:00,55.2,36.9,30.33,SSE,153,1.0,3.0,50,0.00,,,0.00,VWS V14.01,2013-03-14 05:30:00,
2013-03-14 00:35:00,55.0,36.7,30.33,ESE,118,0.0,2.0,50,0.00,,,0.00,VWS V14.01,2013-03-14 05:35:00,
2013-03-14 00:40:00,54.7,36.9,30.32,East,98,1.0,2.0,51,0.00,,,0.00,VWS V14.01,2013-03-14 05:40:00,
2013-03-14 00:45:00,54.4,37.2,30.32,ESE,113,1.0,3.0,52,0.00,,,0.00,VWS V14.01,2013-03-14 05:45:00,
2013-03-14 00:50:00,54.2,37.5,30.33,ESE,117,2.0,3.0,53,0.00,,,0.00,VWS V14.01,2013-03-14 05:50:00,
2013-03-14 00:55:00,54.1,38.3,30.33,East,98,1.0,4.0,55,0.00,,,0.00,VWS V14.01,2013-03-14 05:55:00,
2013-03-14 01:00:00,53.8,38.5,30.32,East,97,0.0,4.0,56,0.00,,,0.00,VWS V14.01,2013-03-14 06:00:00,
2013-03-14 01:05:00,53.5,38.7,30.32,ESE,108,1.0,2.0,57,0.00,,,0.00,VWS V14.01,2013-03-14 06:05:00,
2013-03-14 01:10:00,53.3,38.9,30.32,ESE,111,2.0,2.0,58,0.00,,,0.00,VWS V14.01,2013-03-14 06:10:00,
2013-03-14 01:15:00,53.1,39.2,30.32,ESE,120,1.0,2.0,59,0.00,,,0.00,VWS V14.01,2013-03-14 06:15:00,
2013-03-14 01:20:00,52.9,39.4,30.32,ESE,120,0.0,2.0,60,0.00,,,0.00,VWS V14.01,2013-03-14 06:20:00,
2013-03-14 01:25:00,52.6,39.1,30.32,East,92,0.0,2.0,60,0.00,,,0.00,VWS V14.01,2013-03-14 06:25:00,
2013-03-14 01:30:00,52.2,39.2,30.32,East,98,0.0,2.0,61,0.00,,,0.00,VWS V14.01,2013-03-14 06:30:00,
2013-03-14 01:35:00,52.0,39.4,30.32,East,89,1.0,2.0,62,0.00,,,0.00,VWS V14.01,2013-03-14 06:35:00,
2013-03-14 01:40:00,52.0,39.8,30.32,East,85,1.0,2.0,63,0.00,,,0.00,VWS V14.01,2013-03-14 06:40:00,
2013-03-14 01:45:00,51.7,39.5,30.32,ESE,119,1.0,2.0,63,0.00,,,0.00,VWS V14.01,2013-03-14 06:45:00,
2013-03-14 01:50:00,51.8,40.4,30.32,ESE,122,0.0,2.0,65,0.00,,,0.00,VWS V14.01,2013-03-14 06:50:00,
2013-03-14 01:55:00,51.9,40.5,30.31,SSE,148,1.0,3.0,65,0.00,,,0.00,VWS V14.01,2013-03-14 06:55:00,
2013-03-14 02:00:00,52.0,40.6,30.31,SE,138,1.0,3.0,65,0.00,,,0.00,VWS V14.01,2013-03-14 07:00:00,
2013-03-14 02:05:00,51.9,40.5,30.31,SE,135,1.0,2.0,65,0.00,,,0.00,VWS V14.01,2013-03-14 07:05:00,
2013-03-14 02:10:00,51.6,40.6,30.31,SE,135,0.0,2.0,66,0.00,,,0.00,VWS V14.01,2013-03-14 07:10:00,
2013-03-14 02:15:00,51.3,40.3,30.31,SE,135,0.0,2.0,66,0.00,,,0.00,VWS V14.01,2013-03-14 07:15:00,
2013-03-14 02:20:00,50.9,40.3,30.31,SE,135,0.0,2.0,67,0.00,,,0.00,VWS V14.01,2013-03-14 07:20:00,
2013-03-14 02:25:00,50.8,40.6,30.31,SE,135,0.0,2.0,68,0.00,,,0.00,VWS V14.01,2013-03-14 07:25:00,
2013-03-14 02:30:00,50.5,40.3,30.32,SE,126,0.0,2.0,68,0.00,,,0.00,VWS V14.01,2013-03-14 07:30:00,
2013-03-14 02:35:00,50.1,40.3,30.31,North,8,0.0,1.0,69,0.00,,,0.00,VWS V14.01,2013-03-14 07:35:00,
2013-03-14 02:40:00,49.8,40.4,30.31,North,352,0.0,1.0,70,0.00,,,0.00,VWS V14.01,2013-03-14 07:40:00,
2013-03-14 02:45:00,49.7,40.7,30.31,NNW,335,0.0,1.0,71,0.00,,,0.00,VWS V14.01,2013-03-14 07:45:00,
2013-03-14 02:50:00,49.6,41.0,30.31,NNW,335,0.0,1.0,72,0.00,,,0.00,VWS V14.01,2013-03-14 07:50:00,
2013-03-14 02:55:00,49.5,40.9,30.31,NNW,338,0.0,1.0,72,0.00,,,0.00,VWS V14.01,2013-03-14 07:55:00,
2013-03-14 03:00:00,49.5,40.9,30.31,North,358,0.0,1.0,72,0.00,,,0.00,VWS V14.01,2013-03-14 08:00:00,
2013-03-14 03:05:00,49.5,41.2,30.31,North,356,0.0,1.0,73,0.00,,,0.00,VWS V14.01,2013-03-14 08:05:00,
2013-03-14 03:10:00,49.3,40.7,30.31,NNW,344,0.0,1.0,72,0.00,,,0.00,VWS V14.01,2013-03-14 08:10:00,
2013-03-14 03:15:00,49.1,40.8,30.31,North,359,0.0,1.0,73,0.00,,,0.00,VWS V14.01,2013-03-14 08:15:00,
2013-03-14 03:20:00,49.1,41.2,30.31,North,352,0.0,1.0,74,0.00,,,0.00,VWS V14.01,2013-03-14 08:20:00,
2013-03-14 03:25:00,49.0,41.1,30.30,North,352,0.0,1.0,74,0.00,,,0.00,VWS V14.01,2013-03-14 08:25:00,
2013-03-14 03:30:00,48.9,41.0,30.30,North,353,0.0,1.0,74,0.00,,,0.00,VWS V14.01,2013-03-14 08:30:00,
2013-03-14 03:35:00,48.9,41.3,30.30,North,352,0.0,1.0,75,0.00,,,0.00,VWS V14.01,2013-03-14 08:35:00,
2013-03-14 03:40:00,48.9,41.3,30.30,North,352,0.0,1.0,75,0.00,,,0.00,VWS V14.01,2013-03-14 08:40:00,
2013-03-14 03:45:00,48.9,41.7,30.30,North,352,0.0,1.0,76,0.00,,,0.00,VWS V14.01,2013-03-14 08:45:00,
2013-03-14 03:50:00,48.8,41.6,30.30,North,352,0.0,1.0,76,0.00,,,0.00,VWS V14.01,2013-03-14 08:50:00,
2013-03-14 03:55:00,48.7,41.5,30.29,North,352,0.0,1.0,76,0.00,,,0.00,VWS V14.01,2013-03-14 08:55:00,
2013-03-14 04:00:00,48.7,41.5,30.29,North,353,0.0,1.0,76,0.00,,,0.00,VWS V14.01,2013-03-14 09:00:00,
2013-03-14 04:05:00,48.7,41.8,30.29,North,352,0.0,1.0,77,0.00,,,0.00,VWS V14.01,2013-03-14 09:05:00,
2013-03-14 04:09:00,48.8,41.9,30.29,North,352,0.0,1.0,77,0.00,,,0.00,VWS V14.01,2013-03-14 09:09:00,
2013-03-14 04:14:00,48.6,41.7,30.29,North,353,0.0,1.0,77,0.00,,,0.00,VWS V14.01,2013-03-14 09:14:00,
2013-03-14 04:19:00,48.4,41.9,30.29,North,352,0.0,1.0,78,0.00,,,0.00,VWS V14.01,2013-03-14 09:19:00,
2013-03-14 04:24:00,48.8,42.9,30.29,North,352,0.0,1.0,80,0.00,,,0.00,VWS V14.01,2013-03-14 09:24:00,
2013-03-14 04:29:00,49.1,42.9,30.29,North,352,0.0,1.0,79,0.00,,,0.00,VWS V14.01,2013-03-14 09:29:00,
2013-03-14 04:34:00,48.8,42.6,30.28,North,353,0.0,0.0,79,0.00,,,0.00,VWS V14.01,2013-03-14 09:34:00,
2013-03-14 04:39:00,48.7,43.5,30.28,North,353,0.0,0.0,82,0.00,,,0.00,VWS V14.01,2013-03-14 09:39:00,
2013-03-14 04:44:00,49.0,43.8,30.28,North,352,0.0,0.0,82,0.00,,,0.00,VWS V14.01,2013-03-14 09:44:00,
2013-03-14 04:49:00,48.9,43.3,30.28,North,353,0.0,0.0,81,0.00,,,0.00,VWS V14.01,2013-03-14 09:49:00,
2013-03-14 04:54:00,48.5,43.6,30.29,North,353,0.0,0.0,83,0.00,,,0.00,VWS V14.01,2013-03-14 09:54:00,
2013-03-14 04:59:00,48.2,43.6,30.28,North,352,0.0,0.0,84,0.00,,,0.00,VWS V14.01,2013-03-14 09:59:00,
2013-03-14 05:04:00,48.1,43.5,30.28,North,352,0.0,0.0,84,0.00,,,0.00,VWS V14.01,2013-03-14 10:04:00,
2013-03-14 05:09:00,47.9,43.3,30.29,North,352,0.0,0.0,84,0.00,,,0.00,VWS V14.01,2013-03-14 10:09:00,
2013-03-14 05:14:00,47.7,43.4,30.29,North,352,0.0,0.0,85,0.00,,,0.00,VWS V14.01,2013-03-14 10:14:00,
2013-03-14 05:19:00,47.6,43.6,30.29,North,352,0.0,0.0,86,0.00,,,0.00,VWS V14.01,2013-03-14 10:19:00,
2013-03-14 05:24:00,47.5,43.2,30.29,North,352,0.0,0.0,85,0.00,,,0.00,VWS V14.01,2013-03-14 10:24:00,
2013-03-14 05:29:00,47.5,43.5,30.29,North,352,0.0,0.0,86,0.00,,,0.00,VWS V14.01,2013-03-14 10:29:00,
2013-03-14 05:34:00,47.6,43.6,30.29,North,352,0.0,0.0,86,0.00,,,0.00,VWS V14.01,2013-03-14 10:34:00,
2013-03-14 05:39:00,47.6,43.6,30.30,North,352,0.0,0.0,86,0.00,,,0.00,VWS V14.01,2013-03-14 10:39:00,
2013-03-14 05:44:00,47.5,43.5,30.30,North,353,0.0,0.0,86,0.00,,,0.00,VWS V14.01,2013-03-14 10:44:00,
2013-03-14 05:49:00,47.3,43.3,30.30,North,349,0.0,1.0,86,0.00,,,0.00,VWS V14.01,2013-03-14 10:49:00,
2013-03-14 05:54:00,47.2,43.5,30.30,North,350,0.0,1.0,87,0.00,,,0.00,VWS V14.01,2013-03-14 10:54:00,
2013-03-14 05:59:00,47.3,43.6,30.30,SW,235,0.0,1.0,87,0.00,,,0.00,VWS V14.01,2013-03-14 10:59:00,
2013-03-14 06:04:00,47.3,43.3,30.30,WSW,238,0.0,1.0,86,0.00,,,0.00,VWS V14.01,2013-03-14 11:04:00,
2013-03-14 06:09:00,47.3,43.6,30.30,WSW,238,0.0,1.0,87,0.00,,,0.00,VWS V14.01,2013-03-14 11:09:00,
2013-03-14 06:14:00,47.3,43.6,30.31,WSW,238,0.0,1.0,87,0.00,,,0.00,VWS V14.01,2013-03-14 11:14:00,
2013-03-14 06:19:00,47.4,43.7,30.31,WSW,238,0.0,1.0,87,0.00,,,0.00,VWS V14.01,2013-03-14 11:19:00,
2013-03-14 06:24:00,47.3,43.6,30.31,WSW,238,0.0,1.0,87,0.00,,,0.00,VWS V14.01,2013-03-14 11:24:00,
2013-03-14 06:29:00,47.3,43.9,30.31,WSW,238,0.0,1.0,88,0.00,,,0.00,VWS V14.01,2013-03-14 11:29:00,
2013-03-14 06:34:00,47.2,43.8,30.31,WSW,238,0.0,0.0,88,0.00,,,0.00,VWS V14.01,2013-03-14 11:34:00,
2013-03-14 06:39:00,47.2,43.8,30.31,WSW,238,0.0,0.0,88,0.00,,,0.00,VWS V14.01,2013-03-14 11:39:00,
2013-03-14 06:44:00,47.1,44.0,30.31,WSW,238,0.0,0.0,89,0.00,,,0.00,VWS V14.01,2013-03-14 11:44:00,
2013-03-14 06:49:00,47.5,44.4,30.31,WSW,237,0.0,0.0,89,0.00,,,0.00,VWS V14.01,2013-03-14 11:49:00,
2013-03-14 06:54:00,47.8,44.4,30.31,WSW,238,0.0,0.0,88,0.00,,,0.00,VWS V14.01,2013-03-14 11:54:00,
2013-03-14 06:59:00,48.1,44.7,30.32,WSW,238,0.0,0.0,88,0.00,,,0.00,VWS V14.01,2013-03-14 11:59:00,
2013-03-14 07:04:00,48.1,44.4,30.32,WSW,238,0.0,0.0,87,0.00,,,0.00,VWS V14.01,2013-03-14 12:04:00,
2013-03-14 07:09:00,48.0,44.3,30.32,WSW,238,0.0,0.0,87,0.00,,,0.00,VWS V14.01,2013-03-14 12:09:00,
2013-03-14 07:14:00,47.9,44.5,30.32,WSW,238,0.0,0.0,88,0.00,,,0.00,VWS V14.01,2013-03-14 12:14:00,
2013-03-14 07:19:00,48.0,44.6,30.32,WSW,238,0.0,0.0,88,0.00,,,0.00,VWS V14.01,2013-03-14 12:19:00,
2013-03-14 07:24:00,48.4,45.3,30.32,WSW,238,0.0,1.0,89,0.00,,,0.00,VWS V14.01,2013-03-14 12:24:00,
2013-03-14 07:29:00,48.9,45.5,30.32,WSW,238,0.0,1.0,88,0.00,,,0.00,VWS V14.01,2013-03-14 12:29:00,
2013-03-14 07:34:00,49.2,45.5,30.32,WSW,238,0.0,0.0,87,0.00,,,0.00,VWS V14.01,2013-03-14 12:34:00,
2013-03-14 07:39:00,49.4,45.7,30.33,WSW,238,0.0,0.0,87,0.00,,,0.00,VWS V14.01,2013-03-14 12:39:00,
2013-03-14 07:44:00,49.7,46.0,30.33,WSW,238,0.0,0.0,87,0.00,,,0.00,VWS V14.01,2013-03-14 12:44:00,
2013-03-14 07:49:00,49.9,45.9,30.33,WSW,237,0.0,0.0,86,0.00,,,0.00,VWS V14.01,2013-03-14 12:49:00,
2013-03-14 07:54:00,50.0,46.0,30.33,WSW,237,0.0,0.0,86,0.00,,,0.00,VWS V14.01,2013-03-14 12:54:00,
2013-03-14 07:59:00,50.1,46.1,30.33,WSW,237,0.0,0.0,86,0.00,,,0.00,VWS V14.01,2013-03-14 12:59:00,
2013-03-14 08:04:00,50.4,46.4,30.33,WSW,238,0.0,0.0,86,0.00,,,0.00,VWS V14.01,2013-03-14 13:04:00,
2013-03-14 08:09:00,50.7,46.7,30.33,WSW,238,0.0,0.0,86,0.00,,,0.00,VWS V14.01,2013-03-14 13:09:00,
2013-03-14 08:14:00,51.0,47.0,30.33,WSW,238,0.0,0.0,86,0.00,,,0.00,VWS V14.01,2013-03-14 13:14:00,
2013-03-14 08:19:00,51.5,47.2,30.33,WSW,238,0.0,0.0,85,0.00,,,0.00,VWS V14.01,2013-03-14 13:19:00,
2013-03-14 08:24:00,51.9,47.8,30.33,WSW,238,0.0,0.0,86,0.00,,,0.00,VWS V14.01,2013-03-14 13:24:00,
2013-03-14 08:29:00,52.3,47.9,30.34,WSW,238,0.0,0.0,85,0.00,,,0.00,VWS V14.01,2013-03-14 13:29:00,
2013-03-14 08:34:00,52.7,48.0,30.34,WSW,238,0.0,0.0,84,0.00,,,0.00,VWS V14.01,2013-03-14 13:34:00,
2013-03-14 08:39:00,53.1,48.4,30.34,WSW,238,0.0,0.0,84,0.00,,,0.00,VWS V14.01,2013-03-14 13:39:00,
2013-03-14 08:44:00,53.5,48.5,30.34,WSW,237,0.0,0.0,83,0.00,,,0.00,VWS V14.01,2013-03-14 13:44:00,
2013-03-14 08:49:00,54.1,49.1,30.35,WSW,238,0.0,0.0,83,0.00,,,0.00,VWS V14.01,2013-03-14 13:49:00,
2013-03-14 08:54:00,54.7,49.7,30.35,WSW,238,0.0,1.0,83,0.00,,,0.00,VWS V14.01,2013-03-14 13:54:00,
2013-03-14 08:59:00,55.1,49.7,30.35,SW,225,1.0,1.0,82,0.00,,,0.00,VWS V14.01,2013-03-14 13:59:00,
2013-03-14 09:04:00,55.3,49.6,30.35,SSW,213,0.0,1.0,81,0.00,,,0.00,VWS V14.01,2013-03-14 14:04:00,
2013-03-14 09:09:00,55.4,49.7,30.35,SW,221,1.0,2.0,81,0.00,,,0.00,VWS V14.01,2013-03-14 14:09:00,
2013-03-14 09:14:00,55.8,50.4,30.35,SW,229,1.0,3.0,82,0.00,,,0.00,VWS V14.01,2013-03-14 14:14:00,
2013-03-14 09:19:00,56.3,50.2,30.35,SSW,211,2.0,4.0,80,0.00,,,0.00,VWS V14.01,2013-03-14 14:19:00,
2013-03-14 09:24:00,56.7,50.6,30.35,South,190,1.0,4.0,80,0.00,,,0.00,VWS V14.01,2013-03-14 14:24:00,
2013-03-14 09:29:00,57.2,50.8,30.35,SE,135,1.0,4.0,79,0.00,,,0.00,VWS V14.01,2013-03-14 14:29:00,
2013-03-14 09:34:00,58.0,51.5,30.35,SSW,210,5.0,5.0,79,0.00,,,0.00,VWS V14.01,2013-03-14 14:34:00,
2013-03-14 09:39:00,58.6,52.1,30.35,SW,220,2.0,5.0,79,0.00,,,0.00,VWS V14.01,2013-03-14 14:39:00,
2013-03-14 09:44:00,59.2,52.3,30.36,SSW,197,2.0,5.0,78,0.00,,,0.00,VWS V14.01,2013-03-14 14:44:00,
2013-03-14 09:49:00,59.8,52.6,30.36,South,178,6.0,7.0,77,0.00,,,0.00,VWS V14.01,2013-03-14 14:49:00,
2013-03-14 09:54:00,59.9,53.0,30.36,SE,134,4.0,7.0,78,0.00,,,0.00,VWS V14.01,2013-03-14 14:54:00,
2013-03-14 09:59:00,60.2,53.0,30.36,SSE,162,2.0,7.0,77,0.00,,,0.00,VWS V14.01,2013-03-14 14:59:00,
2013-03-14 10:04:00,60.3,53.4,30.36,SW,214,5.0,7.0,78,0.00,,,0.00,VWS V14.01,2013-03-14 15:04:00,
2013-03-14 10:09:00,60.5,53.6,30.36,South,180,4.0,7.0,78,0.00,,,0.00,VWS V14.01,2013-03-14 15:09:00,
2013-03-14 10:14:00,60.8,53.5,30.36,SW,217,4.0,7.0,77,0.00,,,0.00,VWS V14.01,2013-03-14 15:14:00,
2013-03-14 10:19:00,61.3,53.7,30.36,South,191,3.0,9.0,76,0.00,,,0.00,VWS V14.01,2013-03-14 15:19:00,
2013-03-14 10:24:00,61.5,53.9,30.36,SW,233,3.0,11.0,76,0.00,,,0.00,VWS V14.01,2013-03-14 15:24:00,
2013-03-14 10:29:00,62.1,53.7,30.36,SSW,205,2.0,11.0,74,0.00,,,0.00,VWS V14.01,2013-03-14 15:29:00,
2013-03-14 10:34:00,62.2,53.8,30.36,South,173,4.0,8.0,74,0.00,,,0.00,VWS V14.01,2013-03-14 15:34:00,
2013-03-14 10:39:00,62.8,54.4,30.36,SW,231,6.0,8.0,74,0.00,,,0.00,VWS V14.01,2013-03-14 15:39:00,
2013-03-14 10:44:00,63.4,54.6,30.36,SSW,205,3.0,10.0,73,0.00,,,0.00,VWS V14.01,2013-03-14 15:44:00,
2013-03-14 10:49:00,63.7,54.1,30.36,ESE,113,8.0,10.0,71,0.00,,,0.00,VWS V14.01,2013-03-14 15:49:00,
2013-03-14 10:54:00,63.7,54.1,30.36,SSW,204,6.0,12.0,71,0.00,,,0.00,VWS V14.01,2013-03-14 15:54:00,
2013-03-14 10:59:00,64.1,54.1,30.36,SE,142,4.0,12.0,70,0.00,,,0.00,VWS V14.01,2013-03-14 15:59:00,
2013-03-14 11:04:00,64.8,54.4,30.36,WSW,238,7.0,9.0,69,0.00,,,0.00,VWS V14.01,2013-03-14 16:04:00,
2013-03-14 11:09:00,64.8,54.0,30.36,South,184,11.0,11.0,68,0.00,,,0.00,VWS V14.01,2013-03-14 16:09:00,
2013-03-14 11:14:00,65.3,54.1,30.36,South,188,8.0,11.0,67,0.00,,,0.00,VWS V14.01,2013-03-14 16:14:00,
2013-03-14 11:19:00,65.4,54.2,30.36,SSE,156,4.0,11.0,67,0.00,,,0.00,VWS V14.01,2013-03-14 16:19:00,
2013-03-14 11:24:00,65.1,53.9,30.36,SW,222,5.0,11.0,67,0.00,,,0.00,VWS V14.01,2013-03-14 16:24:00,
2013-03-14 11:29:00,65.4,54.2,30.36,SSW,194,8.0,11.0,67,0.00,,,0.00,VWS V14.01,2013-03-14 16:29:00,
2013-03-14 11:34:00,66.7,54.2,30.36,SSE,150,8.0,9.0,64,0.00,,,0.00,VWS V14.01,2013-03-14 16:34:00,
2013-03-14 11:39:00,67.1,53.2,30.36,WSW,257,5.0,9.0,61,0.00,,,0.00,VWS V14.01,2013-03-14 16:39:00,
2013-03-14 11:44:00,67.2,52.4,30.36,SW,224,8.0,12.0,59,0.00,,,0.00,VWS V14.01,2013-03-14 16:44:00,
2013-03-14 11:49:00,67.7,53.3,30.36,SSW,208,7.0,12.0,60,0.00,,,0.00,VWS V14.01,2013-03-14 16:49:00,
2013-03-14 11:54:00,67.5,53.6,30.35,SW,217,4.0,12.0,61,0.00,,,0.00,VWS V14.01,2013-03-14 16:54:00,
2013-03-14 11:59:00,68.1,52.8,30.35,South,183,8.0,13.0,58,0.00,,,0.00,VWS V14.01,2013-03-14 16:59:00,
2013-03-14 12:04:00,68.3,53.4,30.35,ENE,71,4.0,10.0,59,0.00,,,0.00,VWS V14.01,2013-03-14 17:04:00,
2013-03-14 12:09:00,68.4,51.6,30.35,SSE,160,6.0,13.0,55,0.00,,,0.00,VWS V14.01,2013-03-14 17:09:00,
2013-03-14 12:14:00,68.5,51.7,30.35,South,191,9.0,14.0,55,0.00,,,0.00,VWS V14.01,2013-03-14 17:14:00,
2013-03-14 12:19:00,68.7,51.9,30.34,SSE,166,4.0,14.0,55,0.00,,,0.00,VWS V14.01,2013-03-14 17:19:00,
2013-03-14 12:24:00,69.1,52.8,30.34,SE,124,6.0,14.0,56,0.00,,,0.00,VWS V14.01,2013-03-14 17:24:00,
2013-03-14 12:29:00,69.9,53.0,30.34,East,98,6.0,14.0,55,0.00,,,0.00,VWS V14.01,2013-03-14 17:29:00,
2013-03-14 12:34:00,70.5,52.0,30.34,SSE,155,6.0,10.0,52,0.00,,,0.00,VWS V14.01,2013-03-14 17:34:00,
2013-03-14 12:39:00,70.8,51.8,30.34,SSE,167,5.0,11.0,51,0.00,,,0.00,VWS V14.01,2013-03-14 17:39:00,
2013-03-14 12:44:00,70.7,51.7,30.33,SE,125,4.0,12.0,51,0.00,,,0.00,VWS V14.01,2013-03-14 17:44:00,
2013-03-14 12:49:00,71.2,50.5,30.33,ESE,121,7.0,14.0,48,0.00,,,0.00,VWS V14.01,2013-03-14 17:49:00,
2013-03-14 12:54:00,71.7,50.4,30.33,South,179,5.0,14.0,47,0.00,,,0.00,VWS V14.01,2013-03-14 17:54:00,
2013-03-14 12:59:00,71.9,50.0,30.33,South,172,6.0,14.0,46,0.00,,,0.00,VWS V14.01,2013-03-14 17:59:00,
2013-03-14 13:04:00,71.8,49.9,30.33,SE,134,6.0,11.0,46,0.00,,,0.00,VWS V14.01,2013-03-14 18:04:00,
2013-03-14 13:09:00,71.7,50.4,30.33,SE,130,4.0,12.0,47,0.00,,,0.00,VWS V14.01,2013-03-14 18:09:00,
2013-03-14 13:14:00,72.0,50.7,30.32,ESE,113,6.0,12.0,47,0.00,,,0.00,VWS V14.01,2013-03-14 18:14:00,
2013-03-14 13:19:00,72.6,51.2,30.32,SSE,155,8.0,12.0,47,0.00,,,0.00,VWS V14.01,2013-03-14 18:19:00,
2013-03-14 13:24:00,72.6,50.7,30.32,SE,128,3.0,12.0,46,0.00,,,0.00,VWS V14.01,2013-03-14 18:24:00,
2013-03-14 13:29:00,73.1,50.5,30.31,ESE,118,4.0,12.0,45,0.00,,,0.00,VWS V14.01,2013-03-14 18:29:00,
2013-03-14 13:34:00,73.2,49.4,30.31,SW,228,12.0,13.0,43,0.00,,,0.00,VWS V14.01,2013-03-14 18:34:00,
2013-03-14 13:39:00,73.3,50.1,30.31,SSE,153,8.0,14.0,44,0.00,,,0.00,VWS V14.01,2013-03-14 18:39:00,
2013-03-14 13:44:00,73.3,50.1,30.30,SSE,155,4.0,16.0,44,0.00,,,0.00,VWS V14.01,2013-03-14 18:44:00,
2013-03-14 13:49:00,73.8,50.5,30.30,South,187,5.0,16.0,44,0.00,,,0.00,VWS V14.01,2013-03-14 18:49:00,
2013-03-14 13:54:00,74.2,50.9,30.30,East,93,6.0,16.0,44,0.00,,,0.00,VWS V14.01,2013-03-14 18:54:00,
2013-03-14 13:59:00,74.5,49.3,30.29,SSE,159,4.0,16.0,41,0.00,,,0.00,VWS V14.01,2013-03-14 18:59:00,
2013-03-14 14:04:00,75.0,47.7,30.29,ESE,116,6.0,12.0,38,0.00,,,0.00,VWS V14.01,2013-03-14 19:04:00,
2013-03-14 14:09:00,75.1,49.2,30.29,ESE,118,6.0,12.0,40,0.00,,,0.00,VWS V14.01,2013-03-14 19:09:00,
2013-03-14 14:14:00,75.3,49.3,30.28,ESE,121,3.0,12.0,40,0.00,,,0.00,VWS V14.01,2013-03-14 19:14:00,
2013-03-14 14:19:00,75.5,48.1,30.28,South,173,5.0,14.0,38,0.00,,,0.00,VWS V14.01,2013-03-14 19:19:00,
2013-03-14 14:24:00,75.4,48.0,30.28,South,177,6.0,14.0,38,0.00,,,0.00,VWS V14.01,2013-03-14 19:24:00,
2013-03-14 14:29:00,75.9,49.2,30.27,SSW,200,5.0,14.0,39,0.00,,,0.00,VWS V14.01,2013-03-14 19:29:00,
2013-03-14 14:34:00,75.4,48.8,30.27,SW,236,7.0,10.0,39,0.00,,,0.00,VWS V14.01,2013-03-14 19:34:00,
2013-03-14 14:39:00,75.5,49.5,30.26,SSW,200,9.0,11.0,40,0.00,,,0.00,VWS V14.01,2013-03-14 19:39:00,
2013-03-14 14:44:00,75.5,48.8,30.26,SE,144,6.0,12.0,39,0.00,,,0.00,VWS V14.01,2013-03-14 19:44:00,
2013-03-14 14:49:00,76.1,48.7,30.26,SW,224,6.0,12.0,38,0.00,,,0.00,VWS V14.01,2013-03-14 19:49:00,
2013-03-14 14:54:00,76.4,48.2,30.26,SSE,158,4.0,12.0,37,0.00,,,0.00,VWS V14.01,2013-03-14 19:54:00,
2013-03-14 14:59:00,77.0,47.3,30.25,ESE,117,1.0,12.0,35,0.00,,,0.00,VWS V14.01,2013-03-14 19:59:00,
2013-03-14 15:04:00,76.7,47.0,30.25,SSE,157,4.0,16.0,35,0.00,,,0.00,VWS V14.01,2013-03-14 20:04:00,
2013-03-14 15:09:00,76.8,46.3,30.25,SE,132,5.0,16.0,34,0.00,,,0.00,VWS V14.01,2013-03-14 20:09:00,
2013-03-14 15:14:00,76.2,46.6,30.25,SSW,193,5.0,16.0,35,0.00,,,0.00,VWS V14.01,2013-03-14 20:14:00,
2013-03-14 15:19:00,76.6,47.7,30.24,SW,217,5.0,16.0,36,0.00,,,0.00,VWS V14.01,2013-03-14 20:19:00,
2013-03-14 15:24:00,77.3,46.8,30.24,SSE,161,5.0,16.0,34,0.00,,,0.00,VWS V14.01,2013-03-14 20:24:00,
2013-03-14 15:29:00,77.7,47.1,30.24,SSW,203,2.0,16.0,34,0.00,,,0.00,VWS V14.01,2013-03-14 20:29:00,
2013-03-14 15:34:00,77.4,46.1,30.24,SSE,152,5.0,11.0,33,0.00,,,0.00,VWS V14.01,2013-03-14 20:34:00,
2013-03-14 15:39:00,77.4,46.1,30.23,SSE,165,3.0,11.0,33,0.00,,,0.00,VWS V14.01,2013-03-14 20:39:00,
2013-03-14 15:44:00,77.7,45.5,30.23,SSE,156,4.0,13.0,32,0.00,,,0.00,VWS V14.01,2013-03-14 20:44:00,
2013-03-14 15:49:00,77.1,45.0,30.23,SW,232,7.0,13.0,32,0.00,,,0.00,VWS V14.01,2013-03-14 20:49:00,
2013-03-14 15:54:00,77.3,46.8,30.23,SSW,197,6.0,13.0,34,0.00,,,0.00,VWS V14.01,2013-03-14 20:54:00,
2013-03-14 15:59:00,77.5,45.3,30.22,SSE,160,4.0,13.0,32,0.00,,,0.00,VWS V14.01,2013-03-14 20:59:00,
2013-03-14 16:04:00,77.5,45.3,30.22,SSW,193,8.0,10.0,32,0.00,,,0.00,VWS V14.01,2013-03-14 21:04:00,
2013-03-14 16:09:00,77.6,47.0,30.22,ESE,122,6.0,13.0,34,0.00,,,0.00,VWS V14.01,2013-03-14 21:09:00,
2013-03-14 16:14:00,77.5,46.2,30.22,South,169,10.0,15.0,33,0.00,,,0.00,VWS V14.01,2013-03-14 21:14:00,
2013-03-14 16:19:00,77.4,46.1,30.21,SW,221,4.0,15.0,33,0.00,,,0.00,VWS V14.01,2013-03-14 21:19:00,
2013-03-14 16:24:00,77.4,45.3,30.21,SSE,165,4.0,15.0,32,0.00,,,0.00,VWS V14.01,2013-03-14 21:24:00,
2013-03-14 16:29:00,77.5,46.2,30.21,SSW,210,2.0,15.0,33,0.00,,,0.00,VWS V14.01,2013-03-14 21:29:00,
2013-03-14 16:34:00,77.9,45.7,30.21,SSW,205,3.0,8.0,32,0.00,,,0.00,VWS V14.01,2013-03-14 21:34:00,
2013-03-14 16:39:00,77.9,46.5,30.21,East,82,6.0,9.0,33,0.00,,,0.00,VWS V14.01,2013-03-14 21:39:00,
2013-03-14 16:44:00,78.0,45.8,30.21,SSE,156,4.0,12.0,32,0.00,,,0.00,VWS V14.01,2013-03-14 21:44:00,
2013-03-14 16:49:00,77.7,46.3,30.21,SSW,194,7.0,12.0,33,0.00,,,0.00,VWS V14.01,2013-03-14 21:49:00,
2013-03-14 16:54:00,77.7,45.5,30.21,SSE,165,3.0,12.0,32,0.00,,,0.00,VWS V14.01,2013-03-14 21:54:00,
2013-03-14 16:59:00,77.9,45.7,30.21,ESE,109,6.0,12.0,32,0.00,,,0.00,VWS V14.01,2013-03-14 21:59:00,
2013-03-14 17:04:00,78.3,45.2,30.20,SSW,194,6.0,13.0,31,0.00,,,0.00,VWS V14.01,2013-03-14 22:04:00,
2013-03-14 17:09:00,78.2,45.1,30.20,SSE,151,4.0,13.0,31,0.00,,,0.00,VWS V14.01,2013-03-14 22:09:00,
2013-03-14 17:14:00,77.9,44.9,30.20,SW,226,4.0,13.0,31,0.00,,,0.00,VWS V14.01,2013-03-14 22:14:00,
2013-03-14 17:19:00,78.0,45.0,30.20,ESE,113,8.0,14.0,31,0.00,,,0.00,VWS V14.01,2013-03-14 22:19:00,
2013-03-14 17:24:00,77.8,44.8,30.20,SSW,197,8.0,14.0,31,0.00,,,0.00,VWS V14.01,2013-03-14 22:24:00,
2013-03-14 17:29:00,77.8,43.9,30.20,WSW,250,6.0,14.0,30,0.00,,,0.00,VWS V14.01,2013-03-14 22:29:00,
2013-03-14 17:34:00,77.9,45.7,30.20,SE,125,3.0,10.0,32,0.00,,,0.00,VWS V14.01,2013-03-14 22:34:00,
2013-03-14 17:39:00,77.9,45.7,30.20,South,179,5.0,11.0,32,0.00,,,0.00,VWS V14.01,2013-03-14 22:39:00,
2013-03-14 17:44:00,77.7,45.5,30.19,SSW,210,5.0,11.0,32,0.00,,,0.00,VWS V14.01,2013-03-14 22:44:00,
2013-03-14 17:49:00,77.6,46.2,30.20,ESE,115,4.0,11.0,33,0.00,,,0.00,VWS V14.01,2013-03-14 22:49:00,
2013-03-14 17:54:00,77.6,46.2,30.19,South,188,8.0,11.0,33,0.00,,,0.00,VWS V14.01,2013-03-14 22:54:00,
2013-03-14 17:59:00,77.6,46.2,30.19,South,190,4.0,11.0,33,0.00,,,0.00,VWS V14.01,2013-03-14 22:59:00,
2013-03-14 18:04:00,77.6,45.4,30.19,South,181,6.0,10.0,32,0.00,,,0.00,VWS V14.01,2013-03-14 23:04:00,
2013-03-14 18:09:00,77.6,44.6,30.19,SW,222,5.0,10.0,31,0.00,,,0.00,VWS V14.01,2013-03-14 23:09:00,
2013-03-14 18:14:00,77.5,44.5,30.19,South,173,10.0,12.0,31,0.00,,,0.00,VWS V14.01,2013-03-14 23:14:00,
2013-03-14 18:19:00,77.3,45.2,30.19,South,188,4.0,12.0,32,0.00,,,0.00,VWS V14.01,2013-03-14 23:19:00,
2013-03-14 18:24:00,77.3,45.2,30.19,ESE,120,2.0,12.0,32,0.00,,,0.00,VWS V14.01,2013-03-14 23:24:00,
2013-03-14 18:29:00,77.4,46.1,30.19,SW,215,3.0,12.0,33,0.00,,,0.00,VWS V14.01,2013-03-14 23:29:00,
2013-03-14 18:34:00,77.0,44.9,30.19,East,91,6.0,8.0,32,0.00,,,0.00,VWS V14.01,2013-03-14 23:34:00,
2013-03-14 18:39:00,76.6,45.4,30.19,SW,219,7.0,9.0,33,0.00,,,0.00,VWS V14.01,2013-03-14 23:39:00,
2013-03-14 18:44:00,76.3,45.1,30.19,ESE,122,5.0,9.0,33,0.00,,,0.00,VWS V14.01,2013-03-14 23:44:00,
2013-03-14 18:49:00,76.0,44.8,30.19,South,180,3.0,11.0,33,0.00,,,0.00,VWS V14.01,2013-03-14 23:49:00,
2013-03-14 18:54:00,75.8,44.7,30.19,SSW,211,3.0,11.0,33,0.00,,,0.00,VWS V14.01,2013-03-14 23:54:00,
2013-03-14 18:59:00,75.5,44.4,30.19,SSE,159,7.0,11.0,33,0.00,,,0.00,VWS V14.01,2013-03-14 23:59:00,
2013-03-14 19:04:00,75.2,44.9,30.19,South,184,3.0,7.0,34,0.00,,,0.00,VWS V14.01,2013-03-15 00:04:00,
2013-03-14 19:09:00,75.0,44.8,30.19,SSW,210,2.0,10.0,34,0.00,,,0.00,VWS V14.01,2013-03-15 00:09:00,
2013-03-14 19:14:00,74.8,44.6,30.19,SSE,153,2.0,10.0,34,0.00,,,0.00,VWS V14.01,2013-03-15 00:14:00,
2013-03-14 19:19:00,74.6,45.2,30.19,SSE,156,4.0,10.0,35,0.00,,,0.00,VWS V14.01,2013-03-15 00:19:00,
2013-03-14 19:24:00,74.3,44.9,30.19,SSE,159,2.0,10.0,35,0.00,,,0.00,VWS V14.01,2013-03-15 00:24:00,
2013-03-14 19:29:00,74.0,44.6,30.19,SE,138,3.0,10.0,35,0.00,,,0.00,VWS V14.01,2013-03-15 00:29:00,
2013-03-14 19:34:00,73.6,45.0,30.19,South,180,2.0,3.0,36,0.00,,,0.00,VWS V14.01,2013-03-15 00:34:00,
2013-03-14 19:39:00,73.2,44.7,30.19,ESE,122,1.0,4.0,36,0.00,,,0.00,VWS V14.01,2013-03-15 00:39:00,
2013-03-14 19:44:00,72.7,45.0,30.19,SE,125,0.0,4.0,37,0.00,,,0.00,VWS V14.01,2013-03-15 00:44:00,
2013-03-14 19:49:00,72.4,44.7,30.19,SE,139,2.0,4.0,37,0.00,,,0.00,VWS V14.01,2013-03-15 00:49:00,
2013-03-14 19:54:00,72.0,44.3,30.19,SE,133,1.0,4.0,37,0.00,,,0.00,VWS V14.01,2013-03-15 00:54:00,
2013-03-14 19:59:00,71.5,44.6,30.19,SSE,165,1.0,4.0,38,0.00,,,0.00,VWS V14.01,2013-03-15 00:59:00,
2013-03-14 20:04:00,71.2,44.3,30.19,SSE,157,0.0,3.0,38,0.00,,,0.00,VWS V14.01,2013-03-15 01:04:00,
2013-03-14 20:09:00,70.9,44.0,30.19,SE,125,2.0,3.0,38,0.00,,,0.00,VWS V14.01,2013-03-15 01:09:00,
2013-03-14 20:14:00,70.7,44.5,30.19,ESE,122,3.0,3.0,39,0.00,,,0.00,VWS V14.01,2013-03-15 01:14:00,
2013-03-14 20:19:00,70.5,45.7,30.19,ESE,111,3.0,6.0,41,0.00,,,0.00,VWS V14.01,2013-03-15 01:19:00,
2013-03-14 20:24:00,70.2,46.1,30.19,East,81,3.0,6.0,42,0.00,,,0.00,VWS V14.01,2013-03-15 01:24:00,
2013-03-14 20:29:00,70.0,46.5,30.19,SE,145,3.0,6.0,43,0.00,,,0.00,VWS V14.01,2013-03-15 01:29:00,
2013-03-14 20:34:00,69.7,46.8,30.19,ESE,103,2.0,5.0,44,0.00,,,0.00,VWS V14.01,2013-03-15 01:34:00,
2013-03-14 20:39:00,69.4,47.7,30.20,SE,143,6.0,8.0,46,0.00,,,0.00,VWS V14.01,2013-03-15 01:39:00,
2013-03-14 20:44:00,69.2,48.7,30.20,SE,125,3.0,12.0,48,0.00,,,0.00,VWS V14.01,2013-03-15 01:44:00,
2013-03-14 20:49:00,68.7,49.3,30.20,East,96,6.0,12.0,50,0.00,,,0.00,VWS V14.01,2013-03-15 01:49:00,
2013-03-14 20:54:00,68.5,50.2,30.20,SE,139,3.0,12.0,52,0.00,,,0.00,VWS V14.01,2013-03-15 01:54:00,
2013-03-14 20:59:00,68.2,50.4,30.21,East,101,7.0,12.0,53,0.00,,,0.00,VWS V14.01,2013-03-15 01:59:00,
2013-03-14 21:04:00,67.9,50.7,30.21,East,81,5.0,9.0,54,0.00,,,0.00,VWS V14.01,2013-03-15 02:04:00,
2013-03-14 21:09:00,67.5,50.8,30.21,East,89,5.0,10.0,55,0.00,,,0.00,VWS V14.01,2013-03-15 02:09:00,
2013-03-14 21:14:00,67.2,51.0,30.21,SSE,147,3.0,12.0,56,0.00,,,0.00,VWS V14.01,2013-03-15 02:14:00,
2013-03-14 21:19:00,67.0,50.8,30.21,East,89,3.0,12.0,56,0.00,,,0.00,VWS V14.01,2013-03-15 02:19:00,
2013-03-14 21:24:00,66.8,51.1,30.22,East,83,3.0,12.0,57,0.00,,,0.00,VWS V14.01,2013-03-15 02:24:00,
2013-03-14 21:29:00,66.4,51.2,30.22,ESE,110,4.0,12.0,58,0.00,,,0.00,VWS V14.01,2013-03-15 02:29:00,
2013-03-14 21:34:00,66.0,51.3,30.22,SSE,163,4.0,9.0,59,0.00,,,0.00,VWS V14.01,2013-03-15 02:34:00,
2013-03-14 21:39:00,65.8,51.5,30.22,SE,138,3.0,9.0,60,0.00,,,0.00,VWS V14.01,2013-03-15 02:39:00,
2013-03-14 21:44:00,65.6,51.8,30.22,ESE,105,6.0,11.0,61,0.00,,,0.00,VWS V14.01,2013-03-15 02:44:00,
2013-03-14 21:49:00,65.3,51.5,30.22,ESE,110,2.0,11.0,61,0.00,,,0.00,VWS V14.01,2013-03-15 02:49:00,
2013-03-14 21:54:00,65.1,51.8,30.22,ESE,118,5.0,11.0,62,0.00,,,0.00,VWS V14.01,2013-03-15 02:54:00,
2013-03-14 21:59:00,64.8,51.9,30.23,South,172,3.0,12.0,63,0.00,,,0.00,VWS V14.01,2013-03-15 02:59:00,
2013-03-14 22:04:00,64.5,51.6,30.23,East,100,3.0,7.0,63,0.00,,,0.00,VWS V14.01,2013-03-15 03:04:00,
2013-03-14 22:09:00,64.3,51.9,30.23,SE,138,3.0,10.0,64,0.00,,,0.00,VWS V14.01,2013-03-15 03:09:00,
2013-03-14 22:14:00,64.0,52.0,30.23,ESE,113,4.0,10.0,65,0.00,,,0.00,VWS V14.01,2013-03-15 03:14:00,
2013-03-14 22:19:00,63.9,51.9,30.23,SE,130,4.0,10.0,65,0.00,,,0.00,VWS V14.01,2013-03-15 03:19:00,
2013-03-14 22:24:00,63.8,51.8,30.23,SE,130,7.0,10.0,65,0.00,,,0.00,VWS V14.01,2013-03-15 03:24:00,
2013-03-14 22:29:00,63.5,52.0,30.23,ESE,122,3.0,10.0,66,0.00,,,0.00,VWS V14.01,2013-03-15 03:29:00,
2013-03-14 22:34:00,63.2,52.1,30.24,ENE,70,3.0,5.0,67,0.00,,,0.00,VWS V14.01,2013-03-15 03:34:00,
2013-03-14 22:39:00,63.0,51.9,30.24,SE,136,2.0,6.0,67,0.00,,,0.00,VWS V14.01,2013-03-15 03:39:00,
2013-03-14 22:44:00,62.9,52.2,30.24,SSE,163,6.0,9.0,68,0.00,,,0.00,VWS V14.01,2013-03-15 03:44:00,
2013-03-14 22:49:00,62.6,51.9,30.24,SE,145,2.0,9.0,68,0.00,,,0.00,VWS V14.01,2013-03-15 03:49:00,
2013-03-14 22:54:00,62.4,52.1,30.24,SE,140,3.0,9.0,69,0.00,,,0.00,VWS V14.01,2013-03-15 03:54:00,
2013-03-14 22:59:00,62.3,52.4,30.24,SE,133,6.0,9.0,70,0.00,,,0.00,VWS V14.01,2013-03-15 03:59:00,
2013-03-14 23:00:00,62.2,52.3,30.24,SSW,210,2.0,9.0,70,0.00,,,0.00,VWS V14.01,2013-03-15 04:00:00,
2013-03-14 23:05:00,62.1,52.2,30.24,South,170,2.0,7.0,70,0.00,,,0.00,VWS V14.01,2013-03-15 04:05:00,
2013-03-14 23:10:00,61.8,52.3,30.24,South,190,3.0,7.0,71,0.00,,,0.00,VWS V14.01,2013-03-15 04:10:00,
2013-03-14 23:15:00,61.6,52.5,30.24,SE,126,3.0,7.0,72,0.00,,,0.00,VWS V14.01,2013-03-15 04:15:00,
2013-03-14 23:20:00,61.5,52.8,30.24,ESE,111,6.0,7.0,73,0.00,,,0.00,VWS V14.01,2013-03-15 04:20:00,
2013-03-14 23:25:00,61.3,52.6,30.24,SE,142,2.0,7.0,73,0.00,,,0.00,VWS V14.01,2013-03-15 04:25:00,
2013-03-14 23:30:00,61.1,52.8,30.24,SSE,155,1.0,1.0,74,0.00,,,0.00,VWS V14.01,2013-03-15 04:30:00,
2013-03-14 23:35:00,60.8,52.8,30.23,SSE,148,2.0,5.0,75,0.00,,,0.00,VWS V14.01,2013-03-15 04:35:00,
2013-03-14 23:40:00,60.6,52.6,30.23,South,184,2.0,6.0,75,0.00,,,0.00,VWS V14.01,2013-03-15 04:40:00,
2013-03-14 23:45:00,60.4,52.8,30.23,SSE,167,2.0,6.0,76,0.00,,,0.00,VWS V14.01,2013-03-15 04:45:00,
2013-03-14 23:50:00,60.2,53.0,30.23,SSE,166,4.0,6.0,77,0.00,,,0.00,VWS V14.01,2013-03-15 04:50:00,
2013-03-14 23:55:00,60.0,52.8,30.23,SSW,207,3.0,6.0,77,0.00,,,0.00,VWS V14.01,2013-03-15 04:55:00,